Weston, WY

4:57 AM MST on February 10, 2016 (GMT -0700)
Gillette-Campbell County

Weather History for KGCC - August, 2014

Change the Weather History Date:

Tuesday, August 26, 2014

  Actual Average Record
Temperature  
Mean Temperature 62 °F 67 °F  
Max Temperature 77 °F 84 °F 100 °F (1926)
Min Temperature 47 °F 51 °F 36 °F (1967)
Degree Days  
Heating Degree Days 3 2  
Month to date heating degree days 29 26  
Since 1 June heating degree days 234 187  
Since 1 July heating degree days 42 45  
Cooling Degree Days 0 4  
Month to date cooling degree days 142 160  
Year to date cooling degree days 344 442  
Since 1 June cooling degree days 336 434  
Growing Degree Days 12 (Base 50)    
Moisture  
Dew Point 50 °F    
Average Humidity 65    
Maximum Humidity 93    
Minimum Humidity 36    
Precipitation  
Precipitation 0.00 in 0.03 in 0.37 in (2002)
Month to date precipitation 1.84 0.81  
Year to date precipitation 14.95 10.34  
Sea Level Pressure  
Sea Level Pressure 30.08 in    
Wind  
Wind Speed 7 mph (South)    
Max Wind Speed 18 mph    
Max Gust Speed 22 mph    
Visibility 10 miles    
Events      
T = Trace of Precipitation, MM = Missing Value Source: NWS Daily Summary

Daily Weather History Graph

Daily Weather History Graph

Search for Another Location

Airport or City:

Trip Planner

Search our weather history database for the weather conditions in past years. The results will help you decide how hot, cold, wet, or windy it might be!

Date:

Astronomy

Aug. 26, 2014 Rise Set
Actual Time 6:18 AM MDT 7:48 PM MDT
Civil Twilight 5:47 AM MDT 8:19 PM MDT
Nautical Twilight 5:10 AM MDT 8:55 PM MDT
Astronomical Twilight 4:31 AM MDT 9:35 PM MDT
Moon 7:25 AM MDT (8/26) 8:06 PM MDT (8/26)
Length of Visible Light 14h 31m
Length of Day
13h 30m
New Moon, 1% of the Moon is Illuminated
Aug 26
New Moon
Sep 2
First Quarter
Sep 8
Full
Sep 15
Last Quarter
Sep 24
New

Hourly Weather History & Observations

Time (MDT) Temp. Dew Point Humidity Pressure Visibility Wind Dir Wind Speed Gust Speed Precip Events Conditions
12:53 AM 46.9 °F 45.0 °F 93% 30.11 in 10.0 mi Calm Calm - N/A   Clear
1:53 AM 48.0 °F 46.0 °F 93% 30.08 in 10.0 mi SSE 5.8 mph - N/A   Clear
2:53 AM 53.6 °F 48.2 °F 82% 30.13 in 10.0 mi SSE 10.4 mph - N/A   Mostly Cloudy
3:53 AM 54.0 °F 48.0 °F 80% 30.06 in 10.0 mi SSE 6.9 mph - N/A   Clear
4:53 AM 53.1 °F 48.9 °F 86% 30.05 in 10.0 mi SSE 6.9 mph - N/A   Clear
5:53 AM 52.0 °F 48.0 °F 86% 30.04 in 10.0 mi Calm Calm - N/A   Clear
6:53 AM 48.9 °F 46.9 °F 93% 30.07 in 10.0 mi Calm Calm - N/A   Clear
7:53 AM 55.9 °F 52.0 °F 87% 30.07 in 10.0 mi SSE 13.8 mph - N/A   Clear
8:53 AM 60.8 °F 53.6 °F 77% 30.15 in 10.0 mi South 17.3 mph - N/A   Clear
9:53 AM 64.0 °F 53.1 °F 67% 30.11 in 10.0 mi SSW 11.5 mph - N/A   Clear
10:53 AM 68.0 °F 51.1 °F 55% 30.08 in 10.0 mi West 4.6 mph - N/A   Clear
11:53 AM 71.1 °F 51.1 °F 49% 30.07 in 10.0 mi Variable 6.9 mph - N/A   Clear
12:53 PM 73.0 °F 50.0 °F 44% 30.07 in 10.0 mi North 11.5 mph 16.1 mph N/A   Clear
1:53 PM 75.0 °F 50.0 °F 41% 30.06 in 10.0 mi Variable 6.9 mph - N/A   Clear
2:53 PM 75.2 °F 48.2 °F 38% 30.15 in 10.0 mi North 8.1 mph - N/A   Clear
3:53 PM 77.0 °F 48.0 °F 36% 30.04 in 10.0 mi North 8.1 mph - N/A   Clear
4:53 PM 77.0 °F 48.0 °F 36% 30.04 in 10.0 mi North 10.4 mph - N/A   Clear
5:53 PM 73.0 °F 46.0 °F 38% 30.05 in 10.0 mi North 10.4 mph - N/A   Overcast
6:53 PM 70.0 °F 51.1 °F 51% 30.07 in 10.0 mi North 6.9 mph - N/A   Mostly Cloudy
7:53 PM 66.0 °F 51.1 °F 59% 30.07 in 10.0 mi North 4.6 mph - N/A   Clear
8:53 PM 57.0 °F 52.0 °F 83% 30.09 in 10.0 mi Calm Calm - N/A   Clear
9:53 PM 54.0 °F 52.0 °F 93% 30.11 in 10.0 mi South 4.6 mph - N/A   Clear
10:53 PM 54.0 °F 51.1 °F 90% 30.10 in 10.0 mi South 4.6 mph - N/A   Clear
11:53 PM 53.1 °F 50.0 °F 89% 30.11 in 10.0 mi SW 4.6 mph - N/A   Clear